When you browse on this site, cookies collect data to enhance your experience and personalize the content and advertising you see.
Visit our Privacy Policy to learn more. By continuing to use the site, you agree to this use of cookies and data.
  • In United Kingdom
  • List of Countries
  • For 7 days
  • Water Temperature
  • Weather Map
  • Weather Widgets
  • user-avatar
    Login

    Hourly Weather Szekszard

    Today, 10 April, Friday

    Time Temperature Precipitation Wind Pressure Humidity
    00:00 +12°C° 0 mm 3 mps 757 mmHg 48%
    01:00 +12°C° 0 mm 3 mps 757 mmHg 49%
    02:00 +11°C° 0 mm 3 mps 757 mmHg 51%
    03:00 +11°C° 0 mm 3 mps 757 mmHg 53%
    04:00 +11°C° 0 mm 3 mps 757 mmHg 55%
    05:00 +11°C° 0 mm 3 mps 757 mmHg 57%
    06:00 +12°C° 0 mm 3 mps 758 mmHg 59%
    07:00 +13°C° 0 mm 3 mps 758 mmHg 60%
    08:00 +16°C° 0 mm 3 mps 758 mmHg 57%
    09:00 +18°C° 0 mm 3 mps 758 mmHg 53%
    10:00 +20°C° 0 mm 3 mps 759 mmHg 49%
    11:00 +20°C° 0 mm 4 mps 759 mmHg 47%
    12:00 +21°C° 0 mm 4 mps 758 mmHg 44%
    13:00 +22°C° 0 mm 5 mps 758 mmHg 41%
    14:00 +21°C° 0 mm 5 mps 758 mmHg 42%
    15:00 +21°C° 0 mm 5 mps 758 mmHg 42%
    16:00 +20°C° 0 mm 5 mps 757 mmHg 42%
    17:00 +18°C° 0 mm 4 mps 757 mmHg 48%
    18:00 +16°C° 0 mm 3 mps 757 mmHg 54%
    19:00 +14°C° 0 mm 2 mps 758 mmHg 59%
    20:00 +13°C° 0 mm 2 mps 758 mmHg 61%
    21:00 +12°C° 0 mm 2 mps 758 mmHg 64%
    22:00 +12°C° 0 mm 2 mps 758 mmHg 66%
    23:00 +10°C° 0 mm 2 mps 758 mmHg 68%

    Tomorrow, 11 April, Saturday

    Time Temperature Precipitation Wind Pressure Humidity
    00:00 +10°C° 0 mm 2 mps 759 mmHg 70%
    01:00 +9°C° 0 mm 2 mps 759 mmHg 72%
    02:00 +10°C° 0 mm 1 mps 759 mmHg 73%
    03:00 +10°C° 0 mm 1 mps 759 mmHg 73%
    04:00 +10°C° 0 mm 1 mps 759 mmHg 74%
    05:00 +10°C° 0 mm 1 mps 759 mmHg 73%
    06:00 +10°C° 0 mm 1 mps 759 mmHg 71%
    07:00 +10°C° 0 mm 2 mps 759 mmHg 70%
    08:00 +12°C° 0 mm 2 mps 760 mmHg 64%
    09:00 +14°C° 0 mm 2 mps 760 mmHg 58%
    10:00 +16°C° 0 mm 2 mps 760 mmHg 52%
    11:00 +17°C° 0 mm 2 mps 760 mmHg 48%
    12:00 +18°C° 0 mm 2 mps 760 mmHg 44%
    13:00 +19°C° 0 mm 2 mps 759 mmHg 41%
    14:00 +19°C° 0 mm 2 mps 759 mmHg 41%
    15:00 +19°C° 0 mm 2 mps 759 mmHg 42%
    16:00 +19°C° 0 mm 2 mps 759 mmHg 43%
    17:00 +17°C° 0 mm 2 mps 759 mmHg 47%
    18:00 +15°C° 0 mm 1 mps 759 mmHg 51%
    19:00 +13°C° 0 mm 1 mps 759 mmHg 55%
    20:00 +13°C° 0 mm 1 mps 759 mmHg 58%
    21:00 +12°C° 0 mm 1 mps 759 mmHg 60%
    22:00 +11°C° 0 mm 1 mps 760 mmHg 62%
    23:00 +11°C° 0 mm 1 mps 759 mmHg 63%

    Day after tomorrow, 12 April, Sunday

    Time Temperature Precipitation Wind Pressure Humidity
    00:00 +11°C° 0 mm 1 mps 759 mmHg 64%
    01:00 +10°C° 0 mm 1 mps 759 mmHg 66%
    02:00 +10°C° 0 mm 1 mps 759 mmHg 66%
    03:00 +10°C° 0 mm 1 mps 759 mmHg 65%
    04:00 +10°C° 0 mm 1 mps 759 mmHg 65%
    05:00 +10°C° 0 mm 2 mps 759 mmHg 65%
    06:00 +10°C° 0 mm 2 mps 759 mmHg 64%
    07:00 +12°C° 0 mm 2 mps 759 mmHg 64%
    08:00 +13°C° 0 mm 3 mps 759 mmHg 59%
    09:00 +16°C° 0 mm 3 mps 759 mmHg 53%
    10:00 +18°C° 0 mm 3 mps 758 mmHg 48%
    11:00 +18°C° 0 mm 3 mps 758 mmHg 46%
    12:00 +19°C° 0 mm 3 mps 757 mmHg 43%
    13:00 +20°C° 0 mm 3 mps 757 mmHg 41%
    14:00 +20°C° 0 mm 3 mps 756 mmHg 42%
    15:00 +20°C° 0 mm 3 mps 756 mmHg 43%
    16:00 +20°C° 0 mm 3 mps 755 mmHg 44%
    17:00 +18°C° 0 mm 3 mps 755 mmHg 49%
    18:00 +16°C° 0 mm 3 mps 754 mmHg 54%
    19:00 +14°C° 0 mm 3 mps 754 mmHg 59%
    20:00 +13°C° 0 mm 3 mps 754 mmHg 61%
    21:00 +12°C° 0 mm 3 mps 754 mmHg 62%
    22:00 +12°C° 0 mm 3 mps 754 mmHg 64%
    23:00 +12°C° 0 mm 3 mps 753 mmHg 65%

    13 April, Monday

    Time Temperature Precipitation Wind Pressure Humidity
    00:00 +12°C° 0 mm 3 mps 753 mmHg 66%
    01:00 +12°C° 0 mm 3 mps 753 mmHg 67%
    02:00 +11°C° 0 mm 3 mps 752 mmHg 69%
    03:00 +11°C° 0 mm 3 mps 752 mmHg 70%
    04:00 +11°C° 0 mm 3 mps 752 mmHg 72%
    05:00 +11°C° 0 mm 3 mps 752 mmHg 71%
    06:00 +12°C° 0 mm 3 mps 752 mmHg 71%
    07:00 +13°C° 0 mm 4 mps 751 mmHg 70%
    08:00 +15°C° 0 mm 4 mps 751 mmHg 63%
    09:00 +17°C° 0 mm 5 mps 751 mmHg 55%
    10:00 +20°C° 0 mm 6 mps 751 mmHg 47%
    11:00 +21°C° 0 mm 7 mps 751 mmHg 44%
    12:00 +21°C° 0 mm 7 mps 750 mmHg 40%
    13:00 +22°C° 0 mm 8 mps 750 mmHg 36%
    14:00 +22°C° 0 mm 7 mps 749 mmHg 37%
    15:00 +22°C° 0 mm 6 mps 749 mmHg 39%
    16:00 +22°C° 0 mm 5 mps 748 mmHg 40%
    17:00 +20°C° 0 mm 5 mps 748 mmHg 40%
    18:00 +19°C° 0 mm 5 mps 748 mmHg 40%
    19:00 +16°C° 0 mm 5 mps 748 mmHg 40%
    20:00 +15°C° 0 mm 5 mps 748 mmHg 40%
    21:00 +14°C° 0 mm 5 mps 748 mmHg 40%
    22:00 +14°C° 0 mm 5 mps 748 mmHg 41%
    23:00 +13°C° 0 mm 5 mps 747 mmHg 45%

    14 April, Tuesday

    Time Temperature Precipitation Wind Pressure Humidity
    00:00 +12°C° 0 mm 5 mps 747 mmHg 49%
    01:00 +12°C° 0 mm 5 mps 747 mmHg 54%
    02:00 +12°C° 0 mm 5 mps 747 mmHg 56%
    03:00 +12°C° 0 mm 5 mps 746 mmHg 58%
    04:00 +11°C° 0 mm 6 mps 746 mmHg 60%
    05:00 +10°C° 0.2 mm 6 mps 747 mmHg 67%
    06:00 +10°C° 0.2 mm 6 mps 747 mmHg 74%
    07:00 +9°C° 0.2 mm 6 mps 747 mmHg 81%
    08:00 +8°C° 0.8 mm 6 mps 748 mmHg 81%
    09:00 +6°C° 0.8 mm 7 mps 749 mmHg 81%
    10:00 +5°C° 0.8 mm 7 mps 750 mmHg 81%
    11:00 +6°C° 0.4 mm 7 mps 751 mmHg 72%
    12:00 +6°C° 0.4 mm 7 mps 751 mmHg 63%
    13:00 +8°C° 0.4 mm 6 mps 752 mmHg 54%
    14:00 +8°C° 0 mm 6 mps 753 mmHg 52%
    15:00 +9°C° 0 mm 7 mps 753 mmHg 50%
    16:00 +9°C° 0 mm 7 mps 754 mmHg 48%
    17:00 +7°C° 0 mm 5 mps 754 mmHg 59%
    18:00 +5°C° 0 mm 3 mps 754 mmHg 70%
    19:00 +6°C° 0 mm 1 mps 755 mmHg 81%
    20:00 +5°C° 0 mm 1 mps 755 mmHg 82%
    21:00 +5°C° 0 mm 1 mps 755 mmHg 83%
    22:00 +4°C° 0 mm 1 mps 755 mmHg 84%
    23:00 +4°C° 0 mm 1 mps 755 mmHg 81%

    15 April, Wednesday

    Time Temperature Precipitation Wind Pressure Humidity
    00:00 +4°C° 0 mm 1 mps 755 mmHg 77%
    01:00 +3°C° 0 mm 1 mps 755 mmHg 74%
    02:00 +3°C° 0 mm 1 mps 755 mmHg 74%
    03:00 +3°C° 0 mm 1 mps 755 mmHg 73%
    04:00 +2°C° 0 mm 1 mps 755 mmHg 73%
    05:00 +3°C° 0 mm 0 mps 756 mmHg 68%
    06:00 +4°C° 0 mm 0 mps 756 mmHg 64%
    07:00 +5°C° 0 mm 0 mps 756 mmHg 60%
    08:00 +7°C° 0 mm 0 mps 756 mmHg 54%
    09:00 +10°C° 0 mm 1 mps 756 mmHg 48%
    10:00 +11°C° 0 mm 1 mps 756 mmHg 42%
    11:00 +12°C° 0 mm 1 mps 756 mmHg 39%
    12:00 +13°C° 0 mm 1 mps 756 mmHg 37%
    13:00 +14°C° 0 mm 1 mps 756 mmHg 35%
    14:00 +14°C° 0 mm 1 mps 755 mmHg 35%
    15:00 +14°C° 0 mm 1 mps 755 mmHg 35%
    16:00 +14°C° 0 mm 1 mps 755 mmHg 35%
    17:00 +13°C° 0 mm 1 mps 755 mmHg 39%
    18:00 +11°C° 0 mm 1 mps 755 mmHg 42%
    19:00 +10°C° 0 mm 1 mps 755 mmHg 45%
    20:00 +9°C° 0 mm 1 mps 755 mmHg 46%
    21:00 +9°C° 0 mm 1 mps 756 mmHg 47%
    22:00 +8°C° 0 mm 2 mps 756 mmHg 47%
    23:00 +7°C° 0 mm 2 mps 756 mmHg 49%
    Show more